ATLAS 5 CENTAUR DEB, 44845

Orbit data source: Space-Track

ATLAS 5 CENTAUR DEB, 44845 is space debris in HEO originally from a launch on Wed, 17 Sep 2014 UTC launched from the Air Force Eastern Test Range (AFETR). Debris objects in space refer to the collection of defunct objects orbiting the Earth. Examples of debris include non-operational satellites, rocket bodies, and fragments generated from explosions, collisions, or faulty payload assembly.

Loading next visibility...
Identifier
44845, 2014-055CD
Orbit
HEO
Last TLE update
3 days ago
Origin
Flag of USUnited Launch Alliance/Lockheed Martin (US)
Manufacturer
Unknown
Mission
Spacecraft
Bus & Motor
Unknown
Mass
Unknown
Launch date (UTC)
2014-09-17 (11 years ago)
Launch vehicle
Unknown
Launch site
Air Force Eastern Test Range (AFETR)
Object type
Payload
Rocket body
Debris
Shape & HBR
Unknown
Radar Cross Section
Small (<0.1 m²)

Expand to show TLE details & history

TLE from 3 days ago
0 ATLAS 5 CENTAUR DEB
1 44845U 14055CD  25189.20458047 -.00000066  00000-0  00000-0 0  9998
2 44845  19.7974 162.2896 5089189 131.0439 285.6995  1.84919210 38065
Epoch: 2025-07-08T04:54Z
TLE epoch observation values (Epoch: 2025-07-08T04:54:35.752Z)
Latitude
0.00001°
Longitude
162.20327°
Altitude
24,803.582 km
Speed
3.369 km/s
True Right ascension
10h 49m 01s
True Declination
0° 00' 00"
Sunlit
Object was in daylight at epoch
Visualization orbit readout
Latitude
-7.6244°
Longitude
140.03573°
Altitude
32,109.399 km
Speed
2.549 km/s
Apparent Right ascension
09h 21m 40s
Apparent Declination
-12° 01' 46"
Sunlit
Object is in daylight
Visualization observer readout
Local Sidereal Time
21:32:01
Azimuth
5.399° NNE
Elevation
-62.02°
Doppler factor
1
Orbital elements
Apogee altitude
35,932.046 km
Perigee altitude
7,391.809 km
Semi-major axis
28,040.064 km
Eccentricity
0.50892
Inclination
19.7974°
RAAN
162.2896°
Arg. of periapsis
131.0439°
True anomaly
Unknown
Mean anomaly
285.6995°
Eccentric anomaly
Unknown
Mean motion
0.46225 °/min
Orbital period
778.8 mins
BSTAR
0
Loading maneuver chart data...
Loading SW <> Apogee altitude chart data...

ATLAS 5 CENTAUR DEB Visibility forecast

Observer location: undefined°, undefined°

Span
Click to sort rows by Start time (UTC) header in descending order
Start Az.
Max El. time (UTC)
Max El. Az.
Max El.
End time (UTC)
End Az.
719 mins2025-07-11 14:15:20.859Z226.93° WSW2025-07-12 01:24:20.859Z167.886° S38.837°2025-07-12 02:14:20.859Z96.681° ESE
|